Vorticity
nan nan nan nan nan nan nan nan nan nan nan nan nan nan nan nan nan nan nan nan nan nan nan nan nan nan nan nan nan nan nan nan nan nan nan nan nan nan nan nan nan nan nan nan nan nan nan nan nan nan nan nan nan nan nan nan nan nan nan nan nan nan nan nan nan nan nan nan nan nan nan nan nan nan nan nan nan nan nan nan nan nan nan nan nan nan
nan 8 7 9 10 10 10 9 9 9 8 6 6 7 8 9 9 8 9 9 9 9 9 9 9 8 7 6 8 10 10 10 10 9 9 9 9 9 9 9 9 8 8 8 7 7 7 7 8 8 8 9 9 8 8 7 7 6 6 6 6 6 6 6 6 6 6 6 6 6 6 6 6 6 7 7 8 8 8 8 8 9 10 12 13 nan
nan 7 7 8 9 9 9 8 8 10 10 9 9 9 9 9 9 8 7 7 8 9 10 10 11 10 7 7 9 9 10 11 10 10 9 9 9 9 9 9 9 9 8 8 8 8 8 8 8 8 8 8 7 6 6 5 5 4 4 4 4 4 4 4 4 4 5 5 5 5 5 5 6 6 6 7 8 8 8 7 7 7 8 9 11 nan
nan 8 8 7 8 9 9 8 9 10 10 10 10 10 10 9 8 7 7 8 8 9 9 10 12 11 9 8 9 10 12 11 10 9 9 9 9 9 9 9 9 9 9 9 9 9 9 9 9 8 7 6 6 5 4 3 3 3 3 3 3 4 4 4 4 4 5 5 5 5 5 5 6 6 6 6 7 7 8 7 6 6 7 8 8 nan
nan 8 8 8 8 9 9 10 10 10 9 8 9 9 10 9 9 8 9 9 10 9 9 9 10 11 10 9 10 12 12 10 9 8 9 9 10 10 10 10 10 10 10 9 10 10 9 8 8 7 6 5 4 3 3 2 2 3 3 3 4 4 4 5 5 5 5 6 6 6 6 6 6 6 6 6 7 7 7 7 7 7 7 8 7 nan
nan 7 9 9 9 9 9 9 10 9 7 6 7 9 9 9 9 9 9 10 10 9 9 9 9 9 8 8 10 13 13 10 8 7 8 9 9 9 9 9 10 9 9 8 8 8 8 7 6 5 4 4 3 3 3 3 3 4 4 4 5 5 6 6 6 6 7 7 7 7 8 8 8 8 7 7 7 7 7 7 7 7 8 8 8 nan
nan 7 9 10 10 10 9 9 10 10 9 7 7 8 9 9 9 9 9 9 9 9 10 10 9 7 6 5 8 12 13 11 9 7 7 8 8 8 8 8 7 7 7 6 6 6 5 5 5 5 5 5 5 5 5 5 6 6 6 6 6 6 7 7 7 7 8 8 8 9 9 9 9 9 9 9 9 8 8 8 8 8 8 8 8 nan
nan 8 9 9 9 9 9 9 9 10 11 10 8 8 8 9 9 9 9 9 9 10 11 11 9 7 5 5 7 11 12 10 8 8 9 8 8 8 8 8 7 7 6 6 6 5 5 5 6 6 7 7 8 8 9 9 9 9 8 8 7 7 7 7 7 7 8 8 9 9 10 10 11 11 11 10 10 10 10 9 9 9 8 9 9 nan
nan 8 8 9 9 9 8 8 7 9 11 12 11 10 9 8 8 8 9 8 9 10 12 12 10 7 6 6 7 9 11 12 11 11 12 12 11 10 9 10 11 10 9 9 8 8 7 7 8 8 9 10 11 11 12 12 11 10 9 8 7 7 6 6 6 7 7 8 9 10 10 11 12 12 12 12 12 11 11 11 10 10 10 9 9 nan
nan 9 8 8 9 10 10 8 7 7 10 13 12 12 11 9 9 9 8 7 7 9 10 11 10 8 7 7 7 8 10 11 10 9 10 14 15 13 11 11 13 13 14 14 14 13 11 10 10 10 11 11 12 12 12 12 11 10 9 7 7 6 6 6 6 6 7 8 9 10 11 11 12 12 12 12 12 12 12 11 11 11 11 10 10 nan
nan 9 9 9 9 10 11 10 8 8 10 11 10 9 10 10 11 11 9 6 6 7 7 9 10 9 8 7 7 8 10 10 6 2 3 7 10 10 9 8 9 11 14 16 17 17 15 13 11 11 11 11 11 11 10 10 10 9 8 7 6 6 5 6 6 7 8 9 10 10 11 11 11 11 12 12 12 12 12 12 12 11 11 11 11 nan
nan 8 8 9 9 9 10 10 10 9 10 10 8 7 7 9 12 14 11 7 6 6 7 8 10 10 8 7 7 9 11 11 7 4 2 3 5 6 6 5 5 6 10 12 13 14 15 14 12 11 10 9 9 9 9 9 9 9 8 7 7 6 6 6 7 8 9 10 10 10 10 10 10 10 11 12 12 12 12 12 12 12 12 12 12 nan
nan 9 9 9 9 9 9 9 10 10 10 10 10 9 7 8 11 11 10 9 7 7 8 10 10 9 9 9 8 9 10 10 10 9 7 6 6 7 8 6 5 6 8 9 8 8 9 11 11 10 9 9 8 8 9 9 9 9 8 8 7 7 7 8 8 9 10 10 10 10 10 9 9 9 10 11 12 12 12 12 12 11 11 11 12 nan
nan 10 10 10 9 9 10 11 11 10 8 9 10 10 9 9 10 10 9 8 9 9 11 11 10 9 9 10 10 10 10 10 10 10 10 8 8 9 9 9 8 8 9 9 8 6 6 8 8 7 6 7 7 8 9 9 10 10 9 9 8 8 8 8 9 10 10 10 10 10 10 9 9 9 9 10 11 11 11 11 10 10 10 11 11 nan
nan 10 10 9 8 8 9 10 10 9 9 9 9 9 10 10 10 11 11 9 9 9 11 10 10 11 11 10 10 11 11 10 10 10 10 10 10 10 10 9 9 9 9 9 9 7 8 9 8 6 5 6 6 6 8 9 9 9 10 9 9 8 8 9 9 10 10 10 10 10 10 10 9 9 10 10 10 10 10 9 9 9 9 10 10 nan
nan 11 11 9 8 7 9 10 9 9 10 10 10 10 10 9 9 11 11 9 8 9 10 10 9 10 12 11 10 10 11 11 10 9 10 11 11 11 10 9 9 9 9 10 10 9 9 9 9 8 7 4 3 4 8 10 10 10 10 9 9 9 9 9 9 10 10 10 10 10 10 10 10 10 10 10 10 10 9 9 9 9 9 9 9 nan
nan 10 11 10 9 8 9 10 10 10 10 10 10 10 11 10 10 10 9 9 9 10 10 10 9 9 10 9 8 9 11 11 10 8 9 10 10 10 10 11 10 9 9 10 10 10 9 9 9 9 7 4 4 6 9 10 10 10 10 10 10 9 9 9 9 10 10 11 11 11 11 11 11 11 10 10 10 10 10 9 9 9 9 8 8 nan
nan 10 10 10 10 9 9 9 9 10 10 10 9 9 9 10 11 11 10 10 10 10 10 10 10 10 9 7 7 7 10 11 9 8 9 9 9 9 10 12 11 10 9 10 10 10 10 9 7 5 3 5 7 8 9 10 10 11 11 10 10 10 9 9 10 10 11 11 12 12 12 12 11 11 11 11 11 11 10 10 9 9 9 9 9 nan
nan 9 9 10 10 10 9 9 10 10 10 10 9 9 8 9 10 11 11 11 11 10 10 9 9 9 9 7 6 7 10 10 8 8 9 10 9 6 9 12 12 11 10 10 10 10 10 9 7 5 4 6 8 8 8 9 10 11 11 11 11 10 10 10 10 11 11 12 12 12 12 11 11 12 12 11 12 12 11 11 11 10 10 10 10 nan
nan 9 8 9 10 10 9 11 11 10 10 10 10 9 9 9 9 10 10 10 10 11 11 10 10 9 8 7 7 9 10 9 9 9 10 10 8 6 8 12 12 11 10 11 11 11 10 9 9 9 10 9 8 8 9 10 11 12 13 12 11 10 10 10 11 11 11 11 11 10 10 10 10 10 10 11 11 11 11 12 12 13 13 13 12 nan
nan 9 9 9 9 9 10 12 13 12 11 9 8 9 8 9 9 9 9 9 10 10 10 10 10 10 10 8 9 11 11 8 7 9 10 10 10 9 9 11 11 10 10 11 11 10 10 9 10 10 9 8 8 9 10 12 13 13 13 12 11 10 9 10 10 10 11 10 10 9 9 8 8 8 8 9 8 9 9 10 11 12 14 14 14 nan
nan 12 12 9 8 8 12 14 15 13 10 8 7 7 7 9 9 9 9 10 10 10 9 8 8 9 9 9 9 12 12 9 8 8 9 9 10 9 10 10 10 10 10 9 9 9 9 10 10 9 7 7 9 11 12 14 14 14 13 11 10 8 8 9 9 9 10 9 9 9 8 8 8 7 7 7 7 7 7 8 8 9 10 12 12 nan
nan 14 14 10 7 7 11 14 14 12 9 8 8 8 9 11 11 11 10 10 10 9 9 10 10 10 9 10 9 11 11 10 10 10 9 8 8 8 9 10 10 10 10 9 8 8 10 11 10 9 8 8 12 14 16 16 15 14 12 9 8 8 8 8 9 9 9 9 9 8 8 8 8 8 8 8 8 8 7 7 7 7 7 7 8 nan
nan 14 13 11 9 9 11 13 12 10 9 9 10 12 14 14 14 14 13 12 11 11 10 10 10 11 11 12 11 10 10 10 11 11 10 9 9 8 8 10 10 10 10 10 9 8 10 12 11 11 7 8 12 16 18 18 16 13 11 9 7 7 8 9 9 9 9 9 9 9 10 9 10 10 10 10 9 9 9 9 8 8 7 7 7 nan
nan 14 14 15 16 14 14 14 14 12 11 10 11 12 13 12 11 11 11 11 11 10 9 9 9 9 10 11 12 11 10 11 12 11 9 10 10 10 9 10 10 10 9 9 9 9 11 11 10 10 7 6 9 15 20 19 16 13 10 8 8 8 9 9 10 10 10 10 11 11 11 11 11 11 11 11 11 11 10 10 10 9 9 9 8 nan
nan 17 19 19 19 17 14 13 13 13 10 8 10 10 10 8 7 6 7 8 9 9 9 8 9 9 9 10 10 11 11 11 11 11 10 10 10 10 11 11 10 9 9 9 9 9 10 10 9 9 8 6 5 10 17 17 14 11 10 9 9 9 10 11 11 11 12 11 11 11 11 11 10 10 10 11 11 11 12 11 11 11 11 11 12 nan
nan 17 16 14 13 10 8 8 9 9 7 6 8 7 5 5 5 5 5 8 9 10 9 8 8 8 10 10 11 11 11 11 11 11 10 9 9 9 10 10 10 10 10 10 10 9 9 10 9 9 9 7 4 4 8 11 11 9 9 10 11 11 12 12 13 13 13 12 12 11 10 10 9 9 10 10 11 11 12 12 12 13 13 15 17 nan
nan 12 11 10 9 7 6 6 6 6 5 5 4 -1 -3 2 6 7 7 9 9 10 9 9 9 9 9 10 10 10 11 11 11 11 10 8 9 9 9 9 10 10 11 11 10 9 10 11 10 9 9 8 7 3 -0 3 5 7 8 10 11 13 15 15 15 15 14 14 12 11 10 9 9 9 9 10 11 11 12 12 13 15 17 19 19 nan
nan 9 9 8 8 8 9 11 13 14 11 7 2 -5 -6 0 7 9 11 11 9 9 9 10 10 9 9 9 10 11 11 11 12 12 10 8 9 9 10 9 10 11 11 11 11 10 10 12 11 10 9 8 9 8 3 1 4 4 5 7 11 13 15 16 16 16 15 14 13 11 10 9 9 9 10 10 11 11 11 12 14 17 20 19 16 nan
nan 5 5 4 6 8 11 13 15 18 19 16 12 6 2 5 10 12 13 11 9 9 9 9 9 9 9 9 11 11 11 12 13 13 11 8 8 9 10 10 10 10 10 11 11 10 10 12 12 11 9 9 10 10 9 7 7 6 4 5 9 9 10 12 13 14 14 13 13 11 10 10 10 10 11 11 11 11 11 12 15 18 20 16 13 nan
nan 6 5 4 5 7 10 10 10 13 16 18 17 17 15 13 13 12 12 10 9 10 10 10 9 9 8 8 9 10 10 12 13 12 11 9 9 10 11 10 10 11 11 11 10 10 10 10 10 10 10 10 11 11 11 10 10 9 8 8 8 5 3 6 9 10 11 11 11 11 11 11 11 12 12 12 12 12 12 13 15 17 17 14 11 nan
nan 9 8 8 8 9 9 9 10 10 11 13 13 14 15 15 13 11 10 9 9 10 11 11 10 9 8 8 7 7 8 10 12 10 8 8 10 11 11 10 10 10 11 12 12 11 10 9 8 9 9 10 11 11 11 11 11 10 10 10 9 4 2 5 7 9 8 8 9 10 11 11 12 12 13 13 13 13 12 13 14 15 14 13 11 nan
nan 9 9 9 10 10 10 9 10 10 10 9 9 9 10 12 13 11 9 9 8 9 10 11 10 9 9 8 7 6 7 10 13 11 8 7 10 11 11 10 10 9 11 12 13 13 11 8 8 8 9 10 10 11 11 11 11 10 10 10 9 6 5 7 8 9 8 9 10 10 10 11 11 11 12 13 13 13 13 13 13 13 11 12 9 nan
nan 9 9 10 10 10 9 9 10 10 10 10 10 10 10 11 12 12 10 9 8 8 9 9 9 9 9 9 8 7 8 12 13 13 10 8 10 11 11 9 9 9 10 10 10 11 11 10 8 8 9 10 10 10 11 10 9 10 10 9 9 8 8 9 9 9 10 11 12 10 10 10 9 10 11 12 12 12 12 12 12 10 11 11 8 nan
nan 8 8 9 10 10 9 9 10 10 10 10 11 11 10 11 11 11 11 10 9 8 8 9 9 9 9 8 9 9 9 12 15 14 9 8 10 10 11 10 10 9 9 9 9 9 10 11 10 8 7 9 10 11 11 10 9 10 11 10 9 8 8 8 9 10 11 12 12 11 11 10 10 10 9 8 9 9 11 11 12 11 12 11 10 nan
nan 8 8 9 10 10 9 9 10 10 11 12 12 12 11 11 11 11 11 11 11 9 8 8 9 9 9 9 9 9 9 12 15 13 8 7 9 9 10 12 11 9 8 9 9 9 10 10 10 9 8 8 9 10 11 11 10 11 12 11 10 9 9 10 10 10 10 10 10 10 10 10 10 9 6 3 7 9 11 12 12 13 14 13 12 nan
nan 9 9 9 10 10 10 10 10 11 11 11 12 12 12 12 11 11 11 12 13 12 11 9 9 9 8 8 8 9 11 13 14 12 9 8 8 9 10 12 12 10 7 8 9 9 8 8 9 10 11 11 9 7 7 8 9 11 11 11 11 10 11 11 12 11 10 8 8 7 8 9 10 9 6 6 11 13 14 14 15 14 15 15 15 nan
nan 10 10 10 10 10 10 10 11 11 11 10 10 11 12 12 12 11 11 12 13 13 12 11 11 11 10 8 8 8 10 13 13 12 9 8 8 9 9 10 12 11 8 8 9 9 8 8 9 10 12 12 10 7 7 8 9 10 11 11 11 11 11 11 11 10 9 8 7 7 9 11 11 10 9 12 14 14 14 14 12 12 15 18 17 nan
nan 10 10 11 11 10 10 9 10 10 10 10 11 12 12 12 12 11 11 12 12 12 12 11 11 12 12 12 11 10 10 11 12 11 9 7 7 9 9 9 11 11 10 9 9 10 9 9 9 9 8 9 10 10 10 10 9 8 9 11 13 13 12 11 11 10 9 8 9 10 12 12 11 10 10 11 10 10 11 11 11 12 15 16 14 nan
nan 9 10 11 12 11 10 9 9 10 10 11 11 12 12 11 11 11 12 12 11 11 11 12 11 11 11 12 13 14 13 13 12 9 9 8 8 9 9 9 10 11 11 9 10 10 10 9 8 7 6 6 6 7 8 9 6 3 5 10 11 10 10 10 11 12 11 10 11 11 11 10 9 9 9 9 8 8 9 10 9 10 11 11 12 nan
nan 8 10 11 12 12 10 10 11 12 11 11 11 11 11 11 10 10 10 10 10 10 11 11 11 10 11 12 13 14 15 14 13 9 9 10 8 7 8 8 9 11 10 9 9 9 8 6 6 6 7 7 7 8 8 7 4 3 8 12 10 7 6 9 12 14 12 11 11 11 9 7 8 9 9 9 10 10 9 8 7 7 9 12 11 nan
nan 8 10 11 11 11 11 12 12 11 11 10 10 10 10 10 10 9 9 9 9 8 10 11 11 10 10 11 12 13 14 15 14 12 11 11 9 7 6 7 8 9 8 7 8 9 8 6 6 7 9 10 10 10 9 8 8 10 12 9 7 8 13 15 14 12 11 11 11 11 9 8 9 9 9 10 11 11 12 9 7 6 8 12 11 nan
nan 10 11 11 11 11 11 10 11 10 9 9 9 10 10 10 11 10 10 9 9 8 9 11 13 12 10 9 10 11 12 14 15 15 14 13 11 9 8 8 8 7 5 6 8 11 12 9 8 9 10 10 10 8 7 9 11 13 12 8 7 10 14 13 12 11 10 9 9 9 9 9 10 9 10 11 11 12 12 12 12 12 11 11 11 nan
nan 11 11 11 11 10 10 10 10 10 10 9 9 9 10 11 11 10 10 10 10 10 9 11 11 11 10 10 9 9 10 11 14 17 19 17 12 8 9 11 9 8 5 5 7 9 12 12 11 11 12 10 9 8 9 9 10 11 12 10 9 8 6 5 6 7 6 7 8 9 9 10 11 11 12 12 12 12 12 13 14 14 14 13 11 nan
nan 11 11 11 11 10 10 10 10 10 10 9 9 10 11 12 11 10 9 10 10 10 10 10 8 8 9 10 10 10 9 10 12 14 16 18 18 15 12 11 10 10 9 7 7 7 8 11 12 12 12 10 9 9 8 8 9 9 11 12 12 11 7 4 4 4 5 8 9 10 11 12 12 11 11 12 12 12 11 10 10 10 12 12 12 nan
nan 9 9 10 10 10 10 10 10 9 9 9 10 11 12 12 11 11 10 10 10 11 11 10 10 9 9 9 10 11 10 10 10 10 11 13 16 19 19 15 11 9 10 10 10 9 8 8 9 10 10 10 10 10 10 9 9 9 11 14 14 13 11 10 9 10 10 10 11 12 13 12 11 10 9 10 11 12 13 12 11 10 10 11 11 nan
nan 8 8 8 9 9 10 10 9 9 9 9 10 11 11 11 11 10 11 11 11 11 11 10 11 11 10 9 9 10 10 9 9 9 9 10 11 13 16 17 15 12 10 10 10 9 9 9 8 8 7 8 9 11 11 11 10 10 11 12 12 11 10 11 12 13 13 11 11 11 11 9 9 9 9 9 10 12 14 14 13 12 11 10 11 nan
nan 8 8 8 8 8 9 10 9 9 8 8 9 11 12 11 9 6 9 12 11 10 10 9 10 11 10 10 10 9 9 10 10 10 10 10 10 11 13 15 16 15 13 12 11 10 10 9 8 6 5 5 6 8 9 11 11 11 10 10 9 9 9 10 11 12 12 11 11 11 9 8 8 8 9 9 10 10 11 12 13 13 12 11 11 nan
nan 10 10 9 8 8 8 9 9 8 8 8 8 9 11 13 12 8 8 11 11 10 9 9 8 9 9 10 11 11 10 10 10 11 11 11 11 10 11 12 13 14 14 14 14 14 14 15 13 9 4 3 3 5 7 9 10 10 9 9 9 9 10 10 11 11 11 11 12 12 10 10 11 10 9 9 8 8 9 11 13 14 14 13 12 nan
nan 11 11 10 9 9 9 9 9 8 8 8 8 8 9 11 13 13 12 11 11 10 11 10 9 8 8 9 10 11 10 9 10 10 11 11 11 10 10 10 10 11 12 13 14 14 15 18 20 20 14 6 1 0 5 8 9 10 10 10 11 11 11 11 11 11 10 11 12 12 10 10 11 11 9 9 9 9 10 12 13 15 15 14 13 nan
nan nan nan nan nan nan nan nan nan nan nan nan nan nan nan nan nan nan nan nan nan nan nan nan nan nan nan nan nan nan nan nan nan nan nan nan nan nan nan nan nan nan nan nan nan nan nan nan nan nan nan nan nan nan nan nan nan nan nan nan nan nan nan nan nan nan nan nan nan nan nan nan nan nan nan nan nan nan nan nan nan nan nan nan nan nan
CAPE
nan nan nan nan nan nan nan nan nan nan nan nan nan nan nan nan nan nan nan nan nan nan nan nan nan nan nan nan nan nan 0 1 1 1 2 3 4 4 5 3 3 1 0 0 0 0 1 1 1 1 0 0 nan nan 0 0 0 0 0 1 1 1 1 1 1 1 3 3 3 3 4 3 1 1 3 3 4 4 5 7 7 9 14 17 17 20
nan nan nan nan nan nan nan nan nan nan nan nan nan nan nan nan nan nan nan nan nan nan nan nan nan nan nan nan nan nan nan 0 1 1 1 2 4 4 4 4 4 3 1 1 1 1 2 1 1 0 0 nan 0 0 nan 0 0 0 0 0 0 0 0 1 1 1 1 1 1 1 1 1 1 1 1 2 5 5 8 12 12 15 20 23 23 24
nan nan nan nan nan nan nan nan nan nan nan nan nan nan nan nan nan nan nan nan nan nan nan nan nan nan nan nan nan nan nan 0 1 1 1 1 2 2 3 3 3 3 3 3 3 3 3 2 2 1 0 0 0 0 nan nan nan nan nan nan nan nan nan nan nan nan nan nan nan nan nan nan nan nan 0 0 3 3 6 12 12 14 18 20 20 26
nan nan nan nan nan nan nan nan nan nan nan nan nan nan nan nan nan nan nan nan nan nan nan nan nan nan nan nan nan nan nan nan nan nan 0 0 1 1 2 2 2 4 3 3 3 4 4 3 3 1 0 0 0 0 0 0 0 nan nan nan nan nan nan nan nan nan nan nan nan nan nan nan nan nan nan 0 1 1 3 7 7 11 14 18 18 23
nan nan nan nan nan nan nan nan nan nan nan nan nan nan nan nan nan nan nan nan nan nan nan nan nan nan nan nan nan nan nan nan nan nan nan nan 0 0 1 2 2 3 3 3 3 4 3 3 3 2 1 1 1 1 0 0 0 nan nan nan nan nan nan nan nan nan nan nan nan nan nan nan nan nan nan 0 0 0 1 4 4 7 11 15 15 19
nan nan nan nan nan nan nan nan nan nan nan nan nan nan nan nan nan nan nan nan nan nan nan nan nan nan nan nan nan nan nan nan nan nan nan nan nan nan 1 2 2 3 4 3 3 3 3 2 2 1 1 1 0 0 0 0 0 nan nan nan nan nan nan nan nan nan nan nan nan nan nan nan nan nan nan nan nan nan 0 2 2 4 7 12 12 17
nan nan nan nan nan nan nan nan nan nan nan nan nan nan nan nan nan nan nan nan nan nan nan nan nan nan nan nan nan nan nan nan nan nan nan nan nan nan 0 1 1 2 2 2 2 1 1 0 0 0 0 0 0 0 0 nan nan nan nan nan nan nan nan nan nan nan nan nan nan nan nan nan nan nan nan nan nan nan nan 0 0 2 5 10 10 15
nan nan nan nan nan nan nan nan nan nan nan nan nan nan nan nan nan nan nan nan nan nan nan nan nan nan nan nan nan nan nan nan nan nan nan nan nan nan nan nan nan nan nan nan nan nan nan nan nan nan nan nan nan nan nan nan nan nan nan nan nan nan nan nan nan nan nan nan nan nan nan nan nan nan nan nan nan nan nan nan nan nan 0 3 3 7
nan nan nan nan nan nan nan nan nan nan nan nan nan nan nan nan nan nan nan nan nan nan nan nan nan nan nan nan nan nan nan nan nan nan nan nan nan nan nan nan nan nan nan nan nan nan nan nan nan nan nan nan nan nan nan nan nan nan nan nan nan nan nan nan nan nan nan nan nan nan nan nan nan nan nan nan nan nan nan nan nan nan nan 0 0 3
nan nan nan nan nan nan nan nan nan nan nan nan nan nan nan nan nan nan nan nan nan nan nan nan nan nan nan nan nan nan nan nan nan nan nan nan nan nan nan nan nan nan nan nan nan nan nan nan nan nan nan nan nan nan nan nan nan nan nan nan nan nan nan nan nan nan nan nan nan nan 0 0 0 0 0 nan nan nan nan nan nan nan nan nan nan 0
nan nan nan nan nan nan nan nan nan nan nan nan nan nan nan nan nan nan nan nan nan nan nan nan nan nan nan nan nan nan nan nan nan nan nan nan nan nan nan nan nan nan nan nan nan nan nan nan nan nan nan nan nan nan nan nan nan nan nan nan nan nan nan nan nan nan nan nan 0 0 1 2 2 2 2 1 0 0 nan nan nan nan nan nan nan nan
nan nan nan nan nan nan nan nan nan nan nan nan nan nan nan nan nan nan nan nan nan nan nan nan nan nan nan nan nan nan nan nan nan nan nan nan nan nan nan nan nan nan nan nan nan nan nan nan nan nan nan nan nan nan nan nan nan nan nan nan nan nan nan nan nan 0 0 0 1 1 2 3 2 2 4 3 2 2 0 0 0 nan nan nan nan nan
nan nan nan nan nan nan nan nan nan nan nan nan nan nan nan nan nan nan nan nan nan nan nan nan nan nan nan nan nan nan nan nan nan nan nan nan nan nan nan nan nan nan nan nan nan nan nan nan nan nan nan nan nan nan nan nan nan nan nan nan nan nan nan 0 0 1 1 1 2 2 2 3 4 4 4 4 3 3 2 2 2 1 1 1 1 0
nan nan nan nan nan nan nan nan nan nan nan nan nan nan nan nan nan nan nan nan nan nan nan nan nan nan nan nan nan nan nan nan nan nan nan nan nan nan nan nan nan nan nan nan nan nan nan nan nan nan nan nan nan nan nan nan nan nan nan nan nan nan 1 1 1 2 3 3 3 3 3 3 4 4 4 4 4 4 3 3 3 2 3 2 2 3
nan nan nan nan nan nan nan nan nan nan nan nan nan nan nan nan nan nan nan nan nan nan nan nan nan nan nan nan nan nan nan nan nan nan nan nan nan nan nan nan nan nan nan nan nan nan nan nan nan nan nan nan nan nan nan nan nan nan nan nan nan 0 2 3 3 3 4 4 4 4 5 4 4 4 5 5 4 4 4 3 3 3 3 5 5 6
nan nan nan nan nan nan nan nan nan nan nan nan nan nan nan nan nan nan nan nan nan nan nan nan nan nan nan nan nan nan nan nan nan nan nan nan nan nan nan nan nan nan nan nan nan nan nan nan nan nan nan nan nan nan nan nan nan nan nan 0 0 1 2 3 3 4 5 4 4 4 4 5 5 5 5 6 5 5 5 4 4 4 3 5 5 7
nan nan nan nan nan nan nan nan nan nan nan nan nan nan nan nan nan nan nan nan nan nan nan nan nan nan nan nan nan nan nan nan nan nan nan nan nan nan nan nan nan nan nan nan nan nan nan nan nan nan nan nan nan nan nan nan nan nan nan 0 0 1 2 3 3 3 4 4 4 4 5 5 5 5 6 5 6 6 6 5 5 5 5 6 6 6
nan nan nan nan nan nan nan nan nan nan nan nan nan nan nan nan nan nan nan nan nan nan nan nan nan nan nan nan nan nan nan nan nan nan nan nan nan nan nan nan nan nan nan nan nan nan nan nan nan nan nan nan nan nan nan nan nan nan nan 1 1 1 2 2 2 1 2 4 5 5 5 5 6 6 6 6 6 6 6 6 6 6 5 5 5 7
nan nan nan nan nan nan nan nan nan nan nan nan nan nan nan nan nan nan nan nan nan nan nan nan nan nan nan nan nan nan nan nan nan nan nan nan nan nan nan nan nan nan nan nan nan nan nan nan nan nan nan nan nan nan nan nan nan nan nan 0 0 1 1 0 0 1 2 4 5 5 7 8 8 8 8 7 7 7 7 7 7 7 7 6 6 7
nan nan nan nan nan nan nan nan nan nan nan nan nan nan nan nan nan nan nan nan nan nan nan nan nan nan nan nan nan nan nan nan nan nan nan nan nan nan nan nan nan nan nan nan nan nan nan nan nan nan nan nan nan nan nan nan nan nan nan 0 0 1 0 0 0 0 2 4 6 6 7 8 11 11 13 13 15 15 15 15 15 16 13 11 11 11
nan nan nan nan nan nan nan nan nan nan nan nan nan nan nan nan nan nan nan nan nan nan nan nan nan nan nan nan nan nan nan nan nan nan nan nan nan nan nan nan nan nan nan nan nan nan nan nan nan nan nan nan nan nan nan nan nan nan nan 0 0 0 nan 0 0 1 2 3 4 4 6 7 8 8 7 10 14 14 16 18 18 17 18 16 16 16
nan nan nan nan nan nan nan nan nan nan nan nan nan nan nan nan nan nan nan nan nan nan nan nan nan nan nan nan nan nan nan nan nan nan nan nan nan nan nan nan nan nan nan nan nan nan nan nan nan nan nan nan nan nan nan nan nan nan nan nan nan nan nan 0 0 2 3 3 4 4 4 5 5 5 6 6 8 8 12 15 15 16 19 19 19 22
nan nan nan nan nan nan nan nan nan nan nan nan nan nan nan nan nan nan nan nan nan nan nan nan nan nan nan nan nan nan nan nan nan nan nan nan nan nan nan nan nan nan nan nan nan nan nan nan nan nan nan nan nan nan nan nan nan nan nan nan nan nan 0 1 1 2 3 3 4 4 4 4 4 4 5 4 6 6 6 9 9 11 14 17 17 23
nan nan nan nan nan nan nan nan nan nan nan nan nan nan nan nan nan nan nan nan nan nan nan nan nan nan nan nan nan nan nan nan nan nan nan nan nan nan nan nan nan nan nan nan nan nan nan nan nan nan nan nan nan nan nan nan nan nan nan nan nan nan 1 2 2 2 3 4 4 4 4 4 5 5 4 4 5 5 6 6 6 7 10 13 13 17
nan nan nan nan nan nan nan nan nan nan nan nan nan nan nan nan nan nan nan nan nan nan nan nan nan nan nan nan nan nan nan nan nan nan nan nan nan nan nan nan nan nan nan nan nan nan nan nan nan nan nan nan nan nan nan nan nan nan nan nan nan 0 0 1 1 2 3 4 4 4 5 5 5 5 5 5 5 5 5 5 5 6 8 9 9 11
nan nan nan nan nan nan nan nan nan nan nan nan nan nan nan nan nan nan nan nan nan nan nan nan nan nan nan nan nan nan nan nan nan nan nan nan nan nan nan nan nan nan nan nan nan nan nan nan nan nan nan nan nan nan nan nan nan nan nan nan nan nan nan 0 0 1 2 2 3 3 4 4 5 5 5 5 5 5 5 5 5 6 6 8 8 10
nan nan nan nan nan nan nan nan nan nan nan nan nan nan nan nan nan nan nan nan nan nan nan nan nan nan nan nan nan nan nan nan nan nan nan nan nan nan nan nan nan nan nan nan nan nan nan nan nan nan nan nan nan nan nan nan nan nan nan nan nan nan nan nan nan 0 1 1 2 2 3 4 4 4 5 5 5 5 5 5 5 5 5 5 5 9
nan 0 0 nan nan nan nan 0 nan nan nan nan nan nan nan nan nan nan nan nan nan nan nan nan nan nan nan nan nan nan nan nan nan nan nan nan nan nan nan nan nan nan nan nan nan nan nan nan nan nan nan nan nan nan nan nan nan nan nan nan nan nan nan nan nan nan 0 1 2 2 3 3 4 4 4 5 5 5 6 6 6 5 5 3 3 1
nan nan 0 1 1 1 1 3 5 5 6 5 nan nan nan nan nan nan nan nan nan nan nan nan nan nan nan nan nan nan nan nan nan nan nan nan nan nan nan nan nan nan nan nan nan nan nan nan nan nan nan nan nan nan nan nan nan nan nan nan nan nan nan nan nan nan 0 1 2 2 3 3 3 3 4 5 5 5 5 5 5 5 4 1 1 nan
nan nan nan nan nan nan nan nan nan nan 6 11 14 14 nan nan nan nan nan nan nan nan nan nan nan nan nan nan nan nan nan nan nan nan nan nan nan nan nan nan nan nan nan nan nan nan nan nan nan nan nan nan nan nan nan nan nan nan nan nan nan nan nan nan nan nan 0 1 1 1 2 2 3 3 4 4 5 5 5 5 5 5 1 nan nan nan
nan nan nan nan nan nan nan nan 0 0 nan 6 5 5 nan nan nan nan nan nan nan nan nan nan nan nan nan nan nan nan nan nan nan nan nan nan nan nan nan nan nan nan nan nan nan nan nan nan nan nan nan nan nan nan nan nan nan nan nan nan nan nan nan nan nan nan nan nan 0 0 1 1 2 2 3 3 4 4 5 5 5 5 nan nan nan nan
nan nan nan nan nan nan nan nan nan nan nan nan nan nan nan nan nan nan nan nan nan nan nan nan nan nan nan nan nan nan nan nan nan nan nan nan nan nan nan nan nan nan nan nan nan nan nan nan nan nan nan nan nan nan nan nan nan nan nan nan nan nan nan nan nan nan nan nan nan nan nan nan nan nan 0 1 1 1 2 4 4 3 nan nan nan nan
nan nan nan nan nan nan nan nan nan nan nan nan nan nan nan nan nan nan nan nan nan nan nan nan nan nan nan nan nan nan nan nan nan nan nan nan nan nan nan nan nan nan nan nan nan nan nan nan nan nan nan nan nan nan nan nan nan nan nan nan nan nan nan nan nan nan nan nan nan nan nan nan nan nan nan nan 1 1 2 3 3 4 0 nan nan nan
nan nan nan nan nan nan nan nan nan nan nan nan nan nan nan nan nan nan nan nan nan nan nan nan nan nan nan nan nan nan nan nan nan nan nan nan nan nan nan nan nan nan nan nan nan nan nan nan nan nan nan nan nan nan nan nan nan nan nan nan nan nan nan nan nan nan nan nan nan nan nan nan nan nan nan nan nan nan 1 2 2 5 5 nan nan nan
nan nan nan nan nan nan nan nan nan nan nan nan nan nan nan nan nan nan nan nan nan nan nan nan nan nan nan nan nan nan nan nan nan nan nan nan nan nan nan nan nan nan nan nan nan nan nan nan nan nan nan nan nan nan nan nan nan nan nan nan nan nan nan nan nan nan nan nan nan nan nan nan nan nan nan nan nan nan 1 3 3 4 4 6 6 2
nan nan nan nan nan nan nan nan nan nan nan nan nan nan nan nan nan nan nan nan nan nan nan nan nan nan nan nan nan nan nan nan nan nan nan nan nan nan nan nan nan nan nan nan nan nan nan nan nan nan nan nan nan nan nan nan nan nan nan nan nan nan nan nan nan nan nan nan nan nan nan nan nan nan nan nan nan nan nan nan nan 0 2 3 3 4
nan nan nan nan nan nan nan nan nan nan nan nan nan nan nan nan nan nan nan nan nan nan nan nan nan nan nan nan nan nan nan nan nan nan nan nan nan nan nan nan nan nan nan nan nan nan nan nan nan nan nan nan nan nan nan nan nan nan nan nan nan nan nan nan nan nan nan nan nan nan nan nan nan nan nan nan nan nan nan nan nan nan nan 0 0 1
nan nan nan nan nan nan nan nan nan nan nan nan nan nan nan nan nan nan nan nan nan nan nan nan nan nan nan nan nan nan nan nan nan nan nan nan nan nan nan nan nan nan nan nan nan nan nan nan nan nan nan nan nan nan nan nan nan nan nan nan nan nan nan nan nan nan nan nan nan nan nan nan nan nan nan nan nan nan nan nan nan nan nan nan nan nan
nan nan nan nan nan nan nan nan nan nan nan nan nan nan nan nan nan nan nan nan nan nan nan nan nan nan nan nan nan nan nan nan nan nan nan nan nan nan nan nan nan nan nan nan nan nan nan nan nan nan nan nan nan nan nan nan nan nan nan nan nan nan nan nan nan nan nan nan nan nan nan nan nan nan nan nan nan nan nan nan nan nan nan nan nan nan
nan nan nan nan nan nan nan nan nan nan nan nan nan nan nan nan nan nan nan nan nan nan nan nan nan nan nan nan nan nan nan nan nan nan nan nan nan nan nan nan nan nan nan nan nan nan nan nan nan nan nan nan nan nan nan nan nan nan nan nan nan nan nan nan nan nan nan nan nan nan nan nan nan nan nan nan nan nan nan nan nan nan nan nan nan nan
nan nan nan nan nan nan nan nan nan nan nan nan nan nan nan nan nan nan nan nan nan nan nan nan nan nan nan nan nan nan nan nan nan nan nan nan nan nan nan nan nan nan nan nan nan nan nan nan nan nan nan nan nan nan nan nan nan nan 1 nan nan nan nan nan nan nan nan nan nan nan nan nan nan nan nan nan nan nan nan nan nan nan nan nan nan nan
nan nan nan nan nan nan nan nan nan nan nan nan nan nan nan nan nan nan nan nan nan nan nan nan nan nan nan nan nan nan nan nan nan nan nan nan nan nan nan nan nan nan nan nan nan nan nan nan nan nan nan nan nan nan nan nan nan nan 0 nan nan nan nan nan nan nan nan nan nan nan nan nan nan nan nan nan nan nan nan nan nan nan nan nan nan nan
nan nan nan nan nan nan nan nan nan nan nan nan nan nan nan nan nan nan nan nan nan nan nan nan nan nan nan nan nan nan nan nan nan nan nan nan nan nan nan nan nan nan nan nan nan nan nan nan nan nan nan nan nan nan nan nan nan nan 0 nan nan nan nan nan nan nan nan nan nan nan nan nan nan nan nan nan nan nan nan nan nan nan nan nan nan nan
nan nan nan nan nan nan nan nan nan nan nan nan nan nan nan nan nan nan nan nan nan nan nan nan nan nan nan nan nan nan nan nan nan nan nan nan nan nan nan nan nan nan nan nan nan nan nan nan nan nan nan nan nan nan nan nan nan nan nan nan nan nan nan nan nan nan nan nan nan nan nan nan nan nan nan nan nan nan nan nan nan nan nan nan nan nan
nan nan nan nan nan nan nan nan nan nan nan nan nan nan nan nan nan nan nan nan nan nan nan nan nan nan nan nan nan nan nan nan nan nan nan nan nan nan nan nan nan nan nan nan nan nan nan nan nan nan nan nan nan nan nan nan nan nan nan nan nan nan nan nan nan nan nan nan nan nan nan nan nan nan nan nan nan nan nan nan nan nan nan nan nan nan
nan nan nan nan nan nan nan nan nan nan nan nan nan nan nan nan nan nan nan nan nan nan nan nan nan nan nan nan nan nan nan nan nan nan nan nan nan nan nan nan nan nan nan nan nan nan nan nan nan nan nan nan nan nan nan nan nan nan nan nan nan nan nan nan nan nan nan nan nan nan nan nan nan nan nan nan nan nan nan nan nan nan nan nan nan nan
nan nan nan nan nan nan nan nan nan nan nan nan nan nan nan nan nan nan nan nan nan nan nan nan nan nan nan nan nan nan nan nan nan nan nan nan nan nan nan nan nan nan nan nan nan nan nan nan nan nan nan nan nan nan nan nan nan nan nan nan nan nan nan nan nan nan nan nan nan nan nan nan nan nan nan nan nan nan nan nan nan nan nan nan nan nan
nan nan nan nan nan nan nan nan nan nan nan nan nan nan nan nan nan nan nan nan nan nan nan nan nan nan nan nan nan nan nan nan nan nan nan nan nan nan nan nan nan nan nan nan nan nan nan nan nan nan nan nan nan nan nan nan nan nan nan nan nan nan nan nan nan nan nan nan nan nan nan nan nan nan nan nan nan nan nan nan nan nan nan nan nan nan
nan nan nan nan nan nan nan nan nan nan nan nan nan nan nan nan nan nan nan nan nan nan nan nan nan nan nan nan nan nan nan nan nan nan nan nan nan nan nan nan nan nan nan nan nan nan nan nan nan nan nan nan nan nan nan nan nan nan nan nan nan nan nan nan nan nan nan nan nan nan nan nan nan nan nan nan nan nan nan nan nan nan nan nan nan nan
nan nan nan nan nan nan nan nan nan nan nan nan nan nan nan nan nan nan nan nan nan nan nan nan nan nan nan nan nan nan nan nan nan nan nan nan nan nan nan nan nan nan nan nan nan 1 2 3 3 6 7 1 nan nan nan nan nan nan nan nan nan nan nan nan nan nan nan nan nan nan nan nan nan nan nan nan nan nan nan nan nan nan nan nan nan nan
nan nan nan nan nan nan nan nan nan nan nan nan nan nan nan nan nan nan nan nan nan nan nan nan nan nan nan nan nan nan nan nan nan nan nan nan nan nan nan nan nan nan nan nan nan 0 1 nan nan nan 5 21 4 4 nan nan nan nan nan nan nan nan nan nan nan nan nan nan nan nan nan nan nan nan nan nan nan nan nan nan nan nan nan nan nan nan